Location: City of Moscow
(46.7306°N, 116.9989°W)
Time: 02:23:45
(UTC+00:00)

Cosmos 1626 Rocket - Pass Details

Date: 15 March 2026
Orbit: 596 x 624 km, 82.5° (Epoch: 13 April)

Event Time Altitude Azimuth Distance (km) Brightness Sun altitude
Rises 12:50:20 0° 347° (NNW) 2,899 7.0 -12.8°
Reaches altitude 10° 12:52:36 10° 343° (NNW) 1,984 6.1 -12.4°
Maximum altitude 12:56:54 56° 266° (W) 733 3.6 -11.7°
Drops below altitude 10° 13:01:07 10° 188° (S) 1,950 5.9 -11.0°
Sets 13:03:20 0° 184° (S) 2,844 6.8 -10.6°
